COSMOS 2251 DEB

Satellite information

Favourite Embed

Satellite Type and Status

DEBRISIN ORBIT

Key statistics

Satellite COSMOS 2251 DEB at a glance.

Uptime

11769

Days in orbit

Revolutions

≈ 14.6

Per day

Orbit

LEO

Low Earth Orbit

Inclination

74.0

Latest

Satellite identification and parameters

Extended collection of information and parameters for COSMOS 2251 DEB.

Object identification

Identified? True

Debris? True

Object name: COSMOS 2251 DEB

International designator: 1993-036YF

Object number (NORAD): 34685

Object ID (CCSDS): 34685

Country: COMMONWEALTH OF INDEPENDENT STATES (CIS)

Current information (Y/N): Y

RCS size: SMALL

Orbital parameters

Period: 98.882 minutes

Inclination: 74.0333 deg

SMA: 7083.345 km

Apoapsis: 714.933 km

Periapsis: 695.487 km

RAAN: 337.7297 deg

Eccentricy: 0.00137262

Argument of periapsis: 100.6349 deg

Mean anomaly: 291.5872 deg

Mean motion: 14.56280927 rev/day

Mean motion (dot): 0.00005421 rev/day2

B* drag term: 0.0012285126 1/REarth

Two-line elements (TLE)

Creation date: Sept. 4, 2025, 10:13 a.m.

Reference frame: TEME

Reference center: EARTH

Epoch: Sept. 4, 2025, 6:11 a.m. UTC

TLE line 0: 0 COSMOS 2251 DEB

TLE line 1: 1 34685U 93036YF 25247.25785742 .00005421 00000-0 12285-2 0 9999

TLE line 2: 2 34685 74.0333 337.7297 0013726 100.6349 291.5872 14.56280927870832

Live tracking on map

Real-time ground track for satellite COSMOS 2251 DEB.

In-orbit conjunctions

A list of the most updated potential collisions computed for object COSMOS 2251 DEB.

Target Orbit TCA Probability of collision Miss distance Type
CZ-6A DEB LEO 2024-11-20 09:28:33 0.0002252598 220.0 (m) DEBRIS
CZ-6A DEB LEO 2024-11-10 07:06:52 0.000231114 900.0 (m) DEBRIS
CZ-6A DEB SSO 2024-11-06 17:06:06 0.0001067701 35.0 (m) DEBRIS
COSMOS 2251 DEB LEO 2024-09-26 14:37:03 0.002451103 13.0 (m) DEBRIS

Associated space launch

Military communications satellite. Destroyed in a collision with Iridium 33.

COSMOS 2251 DEB was lifted into orbit during the mission ‘Kosmos-3M | Strela-2M 51’, on board a Kosmos-3M space rocket.

The launch took place on June 16, 1993, 4:17 a.m. from 132/1 (132L).

For more information about the launch, click the button.

Launch to space Kosmos-3M | Strela-2M 51
Kosmos-3M | Strela-2M 51

Agency: N/A

Status: Launch Successful

Launch date: June 16, 1993, 4:17 a.m. UTC

Rocket: Kosmos-3M

Launch pad: 132/1 (132L)

Location: Plesetsk Cosmodrome, Russian Federation

...

Latest news about this satellite

There are no fresh news available about this satellite. Check back as we update our databases every day.


Newsletter sign-up

Weekly statistics, charts and insights to help you stay on top of the space industry.